User: anonymous   Login
Location: Pian di Sc�
(43.6333°N, 11.5500°E)
Time: 11:44:08
(UTC+00:00)
Language:

Cosmos 2297 Rocket - Orbit

View from above orbital plane
View from above orbital plane
View from above satellite
View from above satellite

Ground track
Ground track

The orbit data is extracted from the following two-line orbital elements,

1 23405U 94077B   20304.91109358 -.00000200 +00000-0 -78465-4 0  9994
2 23405 070.9799 145.6500 0004936 261.0546 099.0018 14.15224146339523
Epoch (UTC): 30 October 2020 21:51:58
Eccentricity: 0.0004936
inclination: 70.9799°
perigee height: 838 km
apogee height: 845 km
right ascension of ascending node: 145.6500°
argument of perigee: 261.0546°
revolutions per day: 14.15224146
mean anomaly at epoch: 99.0018°
orbit number at epoch: 33952

The dashed part of the orbit path shows where the satellite is in the earth's shadow,  

DLR